Location: Newark
(43.0000°N, 1.6781°W)
Time: 00:59:21
(UTC+00:00)

Vanguard 1 Rocket - Pass Details

Date: 19 April 2021
Orbit: 652 x 4224 km, 34.3° (Epoch: 06 May)

Event Time Altitude Azimuth Distance (km) Brightness Sun altitude
Rises 16:10:18 0° 256° (WSW) 3,081 11.4 28.8°
Reaches altitude 10° 16:12:55 10° 244° (WSW) 2,065 10.8 28.3°
Maximum altitude 16:16:42 28° 184° (S) 1,238 8.5 27.6°
Drops below altitude 10° 16:20:54 10° 125° (SE) 2,298 9.2 26.9°
Sets 16:24:00 0° 113° (ESE) 3,512 10.0 26.3°
